EW1689 Weather Reports


Display with metric or nautical units.
time (UTC)temp
F
wind
direction
speed
MPH
gust
MPH
rain 1hr
in
rain 24hr
in
rain mn
in
humidity
%
barometer
mb
20260901022017 81 0.0 0.0 0.00 0.24 0.23 58 1013.2
20260901021017 82 0.0 0.0 0.00 0.24 0.23 56 1013.1
20260901020017 82 0.0 0.0 0.00 0.24 0.23 56 1013.1
20260901015017 83 0.0 0.0 0.00 0.24 0.23 53 1012.9
20260901014037 83 0.0 0.0 0.00 0.24 0.23 53 1012.9
20260901013017 83 0.0 0.0 0.00 0.24 0.23 53 1013.0
20260901012017 83 0.0 0.0 0.00 0.24 0.23 52 1013.1
20260901011017 84 0.0 0.0 0.00 0.24 0.23 52 1013.1
20260901010017 84 0.0 0.0 0.00 0.24 0.23 53 1012.9
20260901005017 84 0.0 0.0 0.00 0.24 0.23 53 1013.0
20260901004017 84 0.0 0.0 0.00 0.24 0.23 52 1012.9
20260901003018 84 0.0 3.0 0.00 0.24 0.23 51 1013.1
20260901002017 85 0 1.0 2.0 0.00 0.24 0.23 50 1013.1
20260901001017 85 0 1.0 3.0 0.00 0.24 0.23 51 1013.2
20260901000017 85 0.0 2.0 0.00 0.24 0.23 52 1013.4
20260831235117 85 0 1.0 4.0 0.00 0.24 0.23 50 1013.4
20260831234017 85 0.0 1.0 0.00 0.24 0.23 53 1013.6
20260831233017 85 0 1.0 4.0 0.00 0.24 0.23 52 1013.7
20260831232016 85 0 1.0 3.0 0.00 0.24 0.23 53 1013.8
20260831231037 84 0 2.0 5.0 0.00 0.24 0.23 52 1013.5
20260831230017 84 0 2.0 6.0 0.00 0.24 0.23 53 1013.6
20260831225016 84 0 1.0 4.0 0.00 0.24 0.23 52 1013.7
20260831224016 84 0 3.0 6.0 0.00 0.24 0.23 52 1013.8
20260831223016 84 0 1.0 3.0 0.00 0.24 0.23 54 1014.0
20260831222016 84 0 1.0 5.0 0.00 0.24 0.23 55 1014.1
20260831221016 84 0 1.0 5.0 0.01 0.24 0.23 55 1014.4
20260831220036 84 0 1.0 4.0 0.01 0.24 0.23 56 1014.7
20260831215016 83 0 1.0 3.0 0.01 0.24 0.23 60 1015.0
20260831214036 82 0 2.0 6.0 0.01 0.24 0.23 60 1015.2
20260831213016 82 0 3.0 8.0 0.01 0.24 0.23 59 1015.4
20260831212036 82 0 2.0 5.0 0.01 0.24 0.23 61 1015.7
20260831211017 82 0.0 0.0 0.00 0.23 0.22 62 1015.9
20260831210016 81 0 2.0 4.0 0.00 0.23 0.22 63 1015.9
20260831205016 81 0 1.0 4.0 0.00 0.23 0.22 63 1016.0
20260831204016 80 0.0 0.0 0.00 0.23 0.22 68 1015.9
20260831203016 79 0.0 1.0 0.00 0.23 0.22 68 1015.9
20260831202016 78 0.0 0.0 0.00 0.23 0.22 69 1015.8
20260831201017 78 0.0 0.0 0.00 0.23 0.22 72 1015.8
20260831200036 77 0.0 0.0 0.00 0.23 0.22 75 1015.8
20260831195037 77 0.0 0.0 0.00 0.23 0.22 77 1015.8
20260831194017 76 0.0 0.0 0.00 0.23 0.22 78 1016.0
20260831193016 75 0.0 2.0 0.00 0.23 0.22 80 1016.2
20260831192016 75 0.0 1.0 0.00 0.23 0.22 83 1016.2
20260831191016 74 0.0 1.0 0.00 0.23 0.22 83 1016.4
20260831190016 74 0.0 1.0 0.00 0.23 0.22 84 1016.5
20260831185016 74 0.0 1.0 0.00 0.23 0.22 84 1016.5
20260831184036 73 0.0 1.0 0.00 0.23 0.22 86 1016.6
20260831183016 73 0.0 1.0 0.00 0.23 0.22 87 1016.6
20260831182037 73 0 1.0 4.0 0.00 0.23 0.22 87 1016.6
20260831181016 72 0 1.0 4.0 0.00 0.23 0.22 87 1016.3
20260831180036 72 0.0 2.0 0.00 0.23 0.22 89 1016.5
20260831175016 72 0 1.0 4.0 0.00 0.23 0.22 89 1016.2
20260831174036 71 0 1.0 3.0 0.00 0.23 0.22 90 1016.3
20260831173016 71 0.0 2.0 0.00 0.23 0.22 91 1016.2
20260831172016 71 0.0 2.0 0.00 0.23 0.22 91 1016.5
20260831171056 71 0.0 2.0 0.01 0.23 0.22 91 1016.9
20260831170016 71 0.0 2.0 0.03 0.23 0.22 92 1016.8
20260831165016 71 0.0 2.0 0.05 0.23 0.22 91 1016.6
20260831164015 71 0 1.0 2.0 0.06 0.23 0.22 91 1017.1
20260831163036 71 0.0 1.0 0.06 0.23 0.22 91 1017.3
20260831162015 71 0.0 0.0 0.07 0.23 0.22 91 1017.3
20260831161016 71 0.0 1.0 0.08 0.22 0.21 91 1017.6
20260831160016 71 0.0 1.0 0.07 0.20 0.19 90 1017.5
20260831155035 71 0 1.0 3.0 0.08 0.18 0.17 89 1017.3
20260831154016 71 0 1.0 3.0 0.10 0.17 0.16 89 1017.1
20260831153016 71 0.0 2.0 0.16 0.17 0.16 88 1017.8
20260831152016 72 0 1.0 2.0 0.15 0.16 0.15 88 1017.7
20260831151015 72 0.0 2.0 0.13 0.14 0.13 87 1017.4
20260831150017 73 0.0 2.0 0.12 0.13 0.12 85 1017.1
20260831145015 74 0 2.0 5.0 0.09 0.10 0.09 82 1016.7
20260831144015 76 0 2.0 4.0 0.06 0.07 0.06 78 1016.6
20260831143015 76 0 1.0 3.0 0.00 0.01 0.00 74 1016.8
20260831142116 76 0 2.0 4.0 0.00 0.01 0.00 74 1016.4
20260831141038 76 0 2.0 8.0 0.00 0.01 0.00 73 1016.0
20260831140017 77 0 2.0 5.0 0.00 0.01 0.00 72 1015.7
20260831135018 76 0 3.0 9.0 0.00 0.01 0.00 72 1015.6
20260831134018 76 0 4.0 8.0 0.00 0.01 0.00 70 1015.5
20260831133017 76 0 3.0 8.0 0.00 0.01 0.00 70 1015.3
20260831132017 76 0 1.0 3.0 0.00 0.01 0.00 69 1015.1
20260831131037 77 0 1.0 3.0 0.00 0.01 0.00 68 1015.0
20260831130017 77 0 1.0 3.0 0.00 0.01 0.00 68 1014.7
20260831125017 77 0.0 0.0 0.00 0.01 0.00 64 1014.3
20260831124019 77 0.0 2.0 0.00 0.01 0.00 63 1014.2
20260831123018 77 0.0 1.0 0.00 0.01 0.00 63 1013.9
20260831122017 77 0.0 0.0 0.00 0.01 0.00 63 1013.7
20260831121017 77 0.0 1.0 0.00 0.01 0.00 64 1013.5
20260831120017 76 0.0 2.0 0.00 0.01 0.00 66 1013.4
20260831115017 76 0.0 1.0 0.00 0.01 0.00 67 1013.3
20260831114037 76 0.0 1.0 0.00 0.01 0.00 67 1013.2
20260831113018 76 0 1.0 3.0 0.00 0.01 0.00 68 1013.4
20260831112017 76 0 2.0 5.0 0.00 0.01 0.00 67 1013.4
20260831111017 77 0 2.0 4.0 0.00 0.01 0.00 65 1013.2
20260831110017 77 0.0 2.0 0.00 0.01 0.00 63 1012.8
20260831105017 77 0.0 1.0 0.00 0.01 0.00 63 1012.6
20260831104037 77 0 1.0 3.0 0.00 0.01 0.00 63 1012.4
20260831103017 77 0 1.0 2.0 0.00 0.01 0.00 62 1012.5
20260831102017 77 0 1.0 3.0 0.00 0.01 0.00 62 1012.5
20260831101017 77 0 1.0 3.0 0.00 0.02 0.00 62 1012.4
20260831100017 77 0 1.0 3.0 0.00 0.02 0.00 63 1012.5
20260831095017 76 0 1.0 3.0 0.00 0.02 0.00 65 1012.5
20260831094017 76 0 1.0 4.0 0.00 0.02 0.00 66 1012.6
20260831093037 76 0 1.0 2.0 0.00 0.02 0.00 67 1012.9
20260831092017 76 0 1.0 2.0 0.00 0.02 0.00 68 1013.0
20260831091017 76 0 1.0 2.0 0.00 0.02 0.00 68 1013.1
20260831090037 76 0 1.0 3.0 0.00 0.02 0.00 69 1012.9
20260831085017 76 0 1.0 4.0 0.00 0.02 0.00 69 1012.9
20260831084036 76 0 1.0 4.0 0.00 0.02 0.00 72 1013.0
20260831083017 75 0 1.0 4.0 0.00 0.02 0.00 73 1013.0
20260831082017 75 0 1.0 5.0 0.00 0.02 0.00 75 1013.0
20260831081447 75 0 2.0 7.0 0.00 0.02 0.00 75 1013.0
20260831080516 75 0 1.0 4.0 0.00 0.02 0.00 75 1013.2
20260831075536 75 0 1.0 4.0 0.00 0.02 0.00 74 1013.3
20260831074517 76 0 2.0 5.0 0.00 0.02 0.00 73 1013.4
20260831073517 77 0 2.0 10.0 0.00 0.02 0.00 70 1013.3
20260831072517 78 0 5.0 16.0 0.00 0.02 0.00 69 1013.3
20260831071516 79 0 3.0 9.0 0.00 0.02 0.00 64 1012.4
20260831070516 79 0 4.0 8.0 0.01 0.02 0.00 65 1012.3
20260831065516 80 0 4.0 11.0 0.01 0.02 0.02 63 1012.3
20260831064516 79 0 4.0 10.0 0.01 0.06 0.02 66 1012.6
20260831063516 81 0 3.0 8.0 0.01 0.09 0.02 63 1012.9
20260831062516 81 0 2.0 4.0 0.01 0.12 0.02 59 1012.1
20260831061516 81 0 3.0 7.0 0.01 0.20 0.02 62 1011.5
20260831060536 83 0 5.0 13.0 0.00 0.19 0.01 57 1011.7
20260831055516 83 0 5.0 14.0 0.00 0.19 0.01 54 1011.6
20260831054536 82 0 6.0 17.0 0.00 0.19 0.01 54 1011.9
20260831053536 81 0 3.0 8.0 0.00 0.19 0.01 55 1011.9
20260831052516 81 0 3.0 10.0 0.00 0.19 0.01 60 1011.7
20260831051516 83 0 3.0 8.0 0.00 0.19 0.01 60 1012.0
20260831050516 85 0 4.0 11.0 0.00 0.19 0.01 55 1012.3
20260831045536 87 0 3.0 9.0 0.00 0.19 0.01 47 1012.0
20260831044536 89 0 5.0 14.0 0.00 0.19 0.01 46 1011.8
20260831043535 90 0 4.0 11.0 0.00 0.19 0.01 44 1011.4
20260831042515 92 0 6.0 12.0 0.00 0.19 0.01 41 1011.3
20260831041535 94 0 1.0 3.0 0.00 0.19 0.01 36 1011.0
20260831040515 95 0.0 0.0 0.00 0.19 0.01 37 1010.9
20260831035516 95 0.0 0.0 0.00 0.19 0.01 36 1011.0
20260831034515 95 0.0 1.0 0.00 0.19 0.01 35 1010.8
20260831033518 95 0.0 1.0 0.00 0.19 0.01 36 1010.7
20260831032537 95 0.0 1.0 0.00 0.19 0.01 35 1010.7
20260831031518 95 0.0 1.0 0.00 0.19 0.01 35 1010.5
20260831030538 95 0.0 1.0 0.00 0.19 0.01 35 1010.2
20260831025538 95 0.0 1.0 0.00 0.19 0.01 35 1010.1
20260831024517 95 0.0 1.0 0.00 0.19 0.01 35 1009.8
20260831023517 95 0.0 2.0 0.00 0.19 0.01 35 1009.5
20260831022517 95 0.0 1.0 0.00 0.19 0.01 36 1009.5